sat.trackr.live / text

‹ back to catalog

SCOT-1 (SCOT)

NORAD 62617 · 2025-009J

PAYLOAD ACTIVE UNKNOWN

§ Identity

Operator
Country
SING
Launch date
2025-01-14
Launch site
AFWTR
Launch vehicle
Mass (kg)
RCS (m²)

External: N2YO · Heavens-Above · Gunter

§ Orbital elements

Epoch: 2026-05-25T03:18:39.167712Z

Period
92.83 min
Inclination
97.3857°
Eccentricity
0.0002173
Mean motion
15.51253387 rev/d
Perigee alt
411.6 km
Apogee alt
414.5 km
Semi-major
6,791.2 km
B*
9.5479e-4
RAAN
232.3181°
Arg perigee
57.5625°
Mean anomaly
302.5837°
Rev number
7,577

§ Raw data

SCOT-1 (SCOT)1 62617U 25009J   26145.13795333  .00056152  00000+0  95479-3 0  99952 62617  97.3857 232.3181 0002173  57.5625 302.5837 15.51253387 75770

JSON: /api/v1/satellites/62617 · /tle

For live sub-satellite position, see the globe view (requires WebGL).

§ Visibility from observer

Set your observer location to see the next 7 days of passes ≥ 10°. The values pass through the URL so the page stays shareable.

No JS? Fill the form by hand. The geolocation button needs JavaScript.

§ Radio — SatNOGS DB

ModeDescriptionDownlinkUplink
FM Mode S - Transmitter 2.260 GHz
FM Mode X - Transmitter 8.325 GHz

2 transmitters · refreshed weekly from db.satnogs.org